Погода в Вольдином

Россия / Республика Коми     62°15′31″N   54°10′55″E
темп.,
°C
ветер,
м/с
пор.,
м/с
влажн.,
%
обл.,
%
осадки,
мм/ч
давл.,
гПа
погр.,
м
13 апреля, вт
вт1300:00+1юз31287100 0.0 1035219
03:00+3юз4168097 0.0 1034476
06:00+4юз41489100 0.0 1033410
09:00+7юз41384100 0.0 1031495
12:00+9ююз41277100 0.0 1029656
15:00+8ююз51582100 0.0 1027837
18:00+8юз51393100 0.0 1024869
21:00+7юз51395100 0.0 1024687
14 апреля, ср
ср1400:00+6юз41295100 0.0 1024486
03:00+6юз31097100 0.0 1024292
06:00+6юз31098100 0.0 1023386
09:00+8ююз41194100 0.1 1022463
12:00+13юз51277100 0.0 1020788
15:00+15юз512685 0.0 10181123
18:00+13юз51472100 0.0 1017755
21:00+11юз6187451 0.0 1015785
15 апреля, чт
чт1500:00+10юз6177777 0.0 1014726
03:00+9зюз51485100 0.0 1014710
06:00+4ссз4992100 0.3 1016638
09:00+3зсз3781100 2.2 1018857
12:00+6сз5748100 0.1 10181569
15:00+6сз5846100 0.1 10201828
18:00+4сз38533 0.0 1022385
21:00+1сз39633 0.0 1024409
16 апреля, пт
пт1600:00−1сз28805 0.0 1026279
03:00−2сз25835 0.0 1028153
06:000зсз23735 0.0 1028366
09:00+3з3453100 0.0 10281204
12:00+4з4645100 0.0 10271643
15:00+6з4949100 0.0 10251749
18:00+4зсз51164100 0.0 10231279
21:00+3сз5986100 0.3 1024998
17 апреля, сб
сб1700:000ссз41087100 0.1 1025828
03:00−3с487238 0.1 1027833
06:00−3с46686 0.0 1029700
09:000вюв1265100 0.0 1026733
12:00+2з2438100 0.0 10271361
15:000ююв3596100 3.9 1020406
18:00−2в2598100 6.3 1020440
21:00−4всв3995100 8.9 1023699